QPF
0.06 0.07 0.08 0.09 0.08 0.07 0.08 0.09 0.08 0.08 0.07 0.06 0.06 0.05 0.06 0.07 0.04 0.03 0.03 0.02 0.02 0.03 0.04 0.05 0.05 0.04 0.04 0.04 0.05 0.07 0.08 0.08 0.07 0.07 0.07 0.08 0.08 0.07 0.05 0.04 0.05 0.04 0.03
0.05 0.09 0.09 0.09 0.08 0.08 0.08 0.08 0.09 0.10 0.10 0.09 0.07 0.06 0.06 0.06 0.05 0.04 0.04 0.04 0.03 0.03 0.05 0.06 0.06 0.05 0.04 0.04 0.05 0.07 0.08 0.09 0.12 0.11 0.07 0.07 0.07 0.08 0.07 0.06 0.05 0.04 0.04
0.04 0.07 0.07 0.07 0.07 0.07 0.08 0.08 0.09 0.10 0.08 0.08 0.09 0.09 0.08 0.06 0.04 0.04 0.04 0.05 0.05 0.04 0.04 0.05 0.05 0.05 0.05 0.05 0.07 0.06 0.07 0.07 0.08 0.09 0.06 0.05 0.07 0.08 0.08 0.07 0.04 0.04 0.03
0.04 0.06 0.07 0.08 0.07 0.06 0.06 0.08 0.08 0.09 0.08 0.07 0.08 0.08 0.07 0.07 0.06 0.05 0.04 0.04 0.06 0.05 0.03 0.03 0.04 0.05 0.05 0.06 0.07 0.06 0.07 0.08 0.09 0.10 0.07 0.08 0.12 0.12 0.09 0.08 0.05 0.05 0.03
0.03 0.05 0.06 0.07 0.06 0.05 0.05 0.05 0.06 0.08 0.07 0.07 0.06 0.06 0.06 0.07 0.06 0.04 0.04 0.04 0.05 0.04 0.04 0.02 0.03 0.03 0.04 0.07 0.07 0.09 0.10 0.09 0.08 0.09 0.07 0.08 0.15 0.15 0.11 0.09 0.07 0.05 0.04
0.04 0.05 0.04 0.05 0.04 0.06 0.08 0.09 0.08 0.07 0.07 0.07 0.04 0.04 0.05 0.05 0.04 0.04 0.03 0.03 0.04 0.03 0.04 0.03 0.03 0.02 0.02 0.04 0.06 0.09 0.10 0.11 0.09 0.10 0.09 0.08 0.09 0.09 0.08 0.07 0.06 0.06 0.05
0.04 0.07 0.05 0.06 0.06 0.07 0.08 0.07 0.07 0.06 0.06 0.06 0.05 0.05 0.05 0.04 0.03 0.03 0.04 0.04 0.03 0.03 0.03 0.03 0.04 0.05 0.04 0.03 0.04 0.07 0.10 0.13 0.13 0.12 0.11 0.09 0.08 0.08 0.09 0.07 0.06 0.05 0.05
0.06 0.07 0.07 0.07 0.07 0.07 0.07 0.07 0.07 0.07 0.06 0.06 0.06 0.07 0.06 0.05 0.03 0.02 0.02 0.03 0.03 0.03 0.03 0.02 0.02 0.03 0.04 0.06 0.05 0.06 0.08 0.13 0.17 0.17 0.14 0.12 0.12 0.11 0.09 0.08 0.08 0.07 0.06
0.05 0.06 0.05 0.06 0.06 0.06 0.06 0.06 0.07 0.06 0.07 0.07 0.06 0.07 0.06 0.06 0.05 0.04 0.03 0.03 0.04 0.04 0.03 0.02 0.02 0.02 0.03 0.06 0.07 0.07 0.10 0.16 0.16 0.15 0.14 0.11 0.12 0.12 0.12 0.12 0.11 0.09 0.08
0.05 0.09 0.07 0.05 0.05 0.04 0.05 0.04 0.05 0.06 0.07 0.08 0.07 0.05 0.05 0.05 0.05 0.05 0.03 0.03 0.03 0.04 0.03 0.03 0.03 0.03 0.03 0.05 0.07 0.07 0.12 0.16 0.15 0.12 0.12 0.13 0.15 0.16 0.16 0.16 0.15 0.12 0.11
0.08 0.09 0.05 0.04 0.04 0.03 0.04 0.04 0.05 0.05 0.05 0.06 0.09 0.07 0.06 0.04 0.05 0.04 0.03 0.04 0.03 0.03 0.04 0.04 0.03 0.03 0.03 0.04 0.05 0.08 0.13 0.19 0.23 0.22 0.18 0.18 0.20 0.20 0.19 0.16 0.14 0.13 0.13
0.06 0.03 0.02 0.03 0.03 0.03 0.03 0.04 0.05 0.05 0.05 0.06 0.08 0.07 0.07 0.07 0.05 0.04 0.03 0.04 0.04 0.04 0.04 0.05 0.05 0.06 0.05 0.07 0.08 0.14 0.20 0.25 0.28 0.27 0.26 0.24 0.23 0.20 0.19 0.16 0.15 0.15 0.16
0.04 0.03 0.03 0.03 0.03 0.03 0.03 0.03 0.04 0.04 0.05 0.06 0.06 0.06 0.07 0.08 0.07 0.05 0.04 0.03 0.03 0.03 0.03 0.03 0.04 0.06 0.06 0.08 0.11 0.16 0.19 0.22 0.23 0.23 0.27 0.26 0.22 0.17 0.15 0.14 0.15 0.15 0.16
0.03 0.02 0.01 0.01 0.02 0.03 0.02 0.04 0.03 0.04 0.04 0.04 0.05 0.07 0.07 0.07 0.08 0.07 0.06 0.05 0.04 0.04 0.03 0.05 0.06 0.05 0.06 0.07 0.10 0.13 0.14 0.14 0.13 0.12 0.13 0.14 0.14 0.13 0.12 0.11 0.10 0.10 0.11
0.01 0.01 0.01 0.01 0.02 0.02 0.02 0.03 0.03 0.03 0.03 0.04 0.04 0.05 0.06 0.06 0.07 0.07 0.08 0.08 0.07 0.06 0.06 0.07 0.08 0.08 0.07 0.07 0.08 0.07 0.09 0.09 0.08 0.08 0.08 0.08 0.08 0.09 0.09 0.08 0.07 0.06 0.05
0.02 0.02 0.01 0.01 0.01 0.01 0.01 0.03 0.02 0.02 0.03 0.03 0.03 0.03 0.04 0.04 0.04 0.05 0.07 0.07 0.07 0.06 0.08 0.08 0.08 0.09 0.08 0.07 0.08 0.08 0.09 0.08 0.07 0.07 0.05 0.04 0.04 0.05 0.06 0.05 0.05 0.04 0.03
0.02 0.02 0.01 0.01 0.00 0.01 0.02 0.02 0.02 0.01 0.02 0.03 0.03 0.02 0.04 0.04 0.03 0.04 0.04 0.04 0.04 0.05 0.06 0.06 0.06 0.06 0.05 0.05 0.08 0.09 0.09 0.09 0.08 0.07 0.04 0.03 0.04 0.04 0.05 0.05 0.04 0.03 0.02
0.02 0.02 0.01 0.01 0.00 0.01 0.01 0.01 0.01 0.01 0.02 0.02 0.02 0.02 0.03 0.03 0.04 0.04 0.04 0.04 0.04 0.04 0.05 0.05 0.05 0.05 0.06 0.08 0.10 0.11 0.10 0.09 0.08 0.07 0.05 0.05 0.05 0.05 0.05 0.06 0.05 0.04 0.03
0.02 0.02 0.02 0.02 0.01 0.01 0.01 0.01 0.01 0.01 0.01 0.01 0.01 0.01 0.02 0.03 0.04 0.04 0.04 0.04 0.04 0.04 0.05 0.04 0.04 0.05 0.08 0.12 0.11 0.11 0.10 0.09 0.07 0.07 0.07 0.06 0.06 0.07 0.07 0.07 0.07 0.06 0.05
0.02 0.01 0.01 0.01 0.01 0.01 0.02 0.02 0.01 0.01 0.01 0.01 0.01 0.01 0.01 0.02 0.04 0.04 0.03 0.03 0.03 0.04 0.05 0.05 0.04 0.05 0.06 0.08 0.08 0.10 0.10 0.08 0.07 0.05 0.06 0.06 0.06 0.07 0.08 0.08 0.08 0.07 0.06
0.01 0.00 0.00 0.00 0.01 0.01 0.01 0.01 0.01 0.01 0.01 0.01 0.01 0.01 0.01 0.01 0.02 0.02 0.02 0.03 0.04 0.04 0.04 0.05 0.06 0.08 0.08 0.08 0.09 0.11 0.11 0.09 0.08 0.07 0.05 0.05 0.06 0.07 0.09 0.09 0.08 0.08 0.07
0.02 0.00 0.00 0.00 0.01 0.01 0.01 0.01 0.01 0.01 0.01 0.01 0.02 0.03 0.03 0.03 0.02 0.01 0.01 0.02 0.03 0.04 0.04 0.04 0.04 0.05 0.07 0.09 0.12 0.11 0.11 0.09 0.09 0.08 0.06 0.05 0.06 0.05 0.06 0.07 0.06 0.05 0.04
0.02 0.01 0.00 0.00 0.01 0.00 0.01 0.01 0.01 0.01 0.01 0.01 0.01 0.02 0.02 0.02 0.02 0.02 0.02 0.02 0.02 0.03 0.04 0.05 0.05 0.06 0.07 0.09 0.11 0.11 0.11 0.11 0.10 0.09 0.07 0.06 0.06 0.05 0.04 0.03 0.03 0.02 0.02
0.01 0.01 0.01 0.00 0.00 0.01 0.01 0.01 0.01 0.00 0.01 0.01 0.01 0.01 0.02 0.02 0.02 0.03 0.02 0.02 0.02 0.02 0.03 0.03 0.03 0.04 0.04 0.05 0.05 0.07 0.08 0.09 0.08 0.06 0.05 0.05 0.06 0.05 0.03 0.03 0.02 0.01 0.01
0.01 0.01 0.01 0.00 0.00 0.01 0.01 0.01 0.00 0.00 0.00 0.00 0.00 0.01 0.01 0.02 0.02 0.02 0.02 0.02 0.02 0.02 0.02 0.03 0.03 0.02 0.03 0.04 0.04 0.05 0.06 0.05 0.05 0.05 0.06 0.06 0.05 0.03 0.02 0.01 0.02 0.02 0.02
0.01 0.01 0.00 0.00 0.00 0.00 0.00 0.01 0.01 0.00 0.00 0.00 0.00 0.01 0.02 0.02 0.02 0.02 0.03 0.03 0.02 0.02 0.02 0.02 0.02 0.02 0.02 0.02 0.04 0.04 0.05 0.06 0.06 0.06 0.06 0.05 0.04 0.04 0.03 0.02 0.01 0.01 0.00
MSLP
1014.87 1015.18 1015.42 1015.61 1015.77 1015.92 1016.09 1016.29 1016.49 1016.68 1016.84 1016.94 1016.99 1017.02 1017.05 1017.14 1017.33 1017.63 1018.05 1018.54 1019.06 1019.54 1019.93 1020.19 1020.32 1020.35 1020.33 1020.31 1020.35 1020.47 1020.69 1020.98 1021.30 1021.62 1021.90 1022.12 1022.27 1022.37 1022.45 1022.52 1022.61 1022.73 1022.87
1015.09 1015.39 1015.62 1015.79 1015.94 1016.08 1016.24 1016.42 1016.62 1016.80 1016.95 1017.04 1017.08 1017.08 1017.08 1017.13 1017.25 1017.49 1017.84 1018.27 1018.74 1019.19 1019.58 1019.87 1020.05 1020.15 1020.21 1020.26 1020.36 1020.51 1020.74 1021.03 1021.33 1021.62 1021.87 1022.06 1022.19 1022.28 1022.36 1022.43 1022.53 1022.66 1022.80
1015.33 1015.62 1015.84 1016.01 1016.15 1016.29 1016.46 1016.64 1016.83 1017.01 1017.16 1017.24 1017.26 1017.23 1017.18 1017.17 1017.21 1017.36 1017.61 1017.95 1018.34 1018.74 1019.11 1019.42 1019.66 1019.84 1019.97 1020.11 1020.27 1020.47 1020.71 1020.98 1021.25 1021.50 1021.70 1021.86 1021.97 1022.05 1022.14 1022.23 1022.35 1022.50 1022.67
1015.53 1015.80 1016.01 1016.19 1016.34 1016.50 1016.68 1016.87 1017.07 1017.26 1017.40 1017.47 1017.48 1017.42 1017.33 1017.24 1017.20 1017.25 1017.38 1017.61 1017.90 1018.23 1018.57 1018.88 1019.15 1019.39 1019.61 1019.81 1020.03 1020.27 1020.52 1020.77 1021.00 1021.21 1021.37 1021.50 1021.60 1021.69 1021.79 1021.92 1022.08 1022.27 1022.47
1015.59 1015.84 1016.06 1016.25 1016.43 1016.62 1016.82 1017.05 1017.27 1017.46 1017.61 1017.68 1017.68 1017.60 1017.47 1017.32 1017.20 1017.14 1017.16 1017.27 1017.45 1017.69 1017.96 1018.25 1018.53 1018.81 1019.08 1019.35 1019.61 1019.88 1020.13 1020.37 1020.58 1020.75 1020.89 1021.00 1021.11 1021.22 1021.37 1021.54 1021.75 1021.99 1022.22
1015.48 1015.71 1015.92 1016.14 1016.36 1016.60 1016.85 1017.10 1017.35 1017.57 1017.73 1017.80 1017.79 1017.70 1017.55 1017.37 1017.18 1017.04 1016.95 1016.93 1017.00 1017.13 1017.32 1017.56 1017.82 1018.11 1018.41 1018.71 1019.01 1019.30 1019.56 1019.79 1019.98 1020.14 1020.27 1020.40 1020.53 1020.69 1020.89 1021.13 1021.39 1021.67 1021.94
1015.18 1015.39 1015.63 1015.88 1016.15 1016.43 1016.73 1017.03 1017.30 1017.54 1017.71 1017.79 1017.79 1017.71 1017.55 1017.35 1017.12 1016.91 1016.74 1016.62 1016.57 1016.59 1016.68 1016.84 1017.06 1017.32 1017.62 1017.93 1018.25 1018.55 1018.83 1019.07 1019.27 1019.44 1019.59 1019.75 1019.93 1020.15 1020.41 1020.70 1021.02 1021.33 1021.61
1014.77 1014.98 1015.23 1015.52 1015.84 1016.17 1016.51 1016.84 1017.13 1017.37 1017.55 1017.64 1017.65 1017.58 1017.44 1017.24 1017.01 1016.77 1016.53 1016.33 1016.18 1016.09 1016.08 1016.14 1016.28 1016.49 1016.76 1017.06 1017.38 1017.70 1017.99 1018.26 1018.49 1018.69 1018.89 1019.11 1019.35 1019.63 1019.94 1020.29 1020.64 1020.96 1021.25
1014.34 1014.55 1014.82 1015.14 1015.50 1015.87 1016.23 1016.57 1016.86 1017.10 1017.26 1017.36 1017.38 1017.34 1017.23 1017.06 1016.85 1016.60 1016.34 1016.08 1015.84 1015.66 1015.53 1015.49 1015.54 1015.68 1015.89 1016.17 1016.48 1016.80 1017.12 1017.42 1017.69 1017.95 1018.21 1018.48 1018.78 1019.12 1019.48 1019.86 1020.22 1020.55 1020.83
1013.97 1014.18 1014.47 1014.82 1015.20 1015.58 1015.94 1016.27 1016.53 1016.74 1016.89 1016.97 1017.01 1016.99 1016.93 1016.81 1016.64 1016.42 1016.15 1015.87 1015.58 1015.30 1015.08 1014.93 1014.88 1014.93 1015.08 1015.31 1015.60 1015.92 1016.26 1016.59 1016.91 1017.22 1017.53 1017.86 1018.21 1018.59 1018.98 1019.37 1019.74 1020.06 1020.31
1013.70 1013.92 1014.22 1014.57 1014.95 1015.32 1015.66 1015.94 1016.16 1016.33 1016.44 1016.51 1016.55 1016.57 1016.55 1016.49 1016.38 1016.21 1015.98 1015.69 1015.36 1015.03 1014.72 1014.48 1014.32 1014.28 1014.35 1014.52 1014.78 1015.09 1015.43 1015.79 1016.14 1016.49 1016.85 1017.22 1017.59 1017.99 1018.39 1018.77 1019.13 1019.44 1019.68
1013.50 1013.73 1014.02 1014.37 1014.73 1015.06 1015.36 1015.59 1015.75 1015.86 1015.93 1015.98 1016.03 1016.08 1016.11 1016.12 1016.09 1015.98 1015.79 1015.52 1015.18 1014.81 1014.44 1014.11 1013.86 1013.73 1013.72 1013.82 1014.03 1014.31 1014.65 1015.01 1015.38 1015.75 1016.12 1016.49 1016.87 1017.26 1017.65 1018.02 1018.36 1018.66 1018.91
1013.29 1013.52 1013.81 1014.13 1014.46 1014.76 1015.00 1015.17 1015.28 1015.34 1015.38 1015.41 1015.46 1015.54 1015.63 1015.71 1015.75 1015.71 1015.58 1015.34 1015.01 1014.61 1014.20 1013.80 1013.48 1013.26 1013.17 1013.21 1013.36 1013.60 1013.90 1014.25 1014.60 1014.96 1015.32 1015.67 1016.03 1016.39 1016.74 1017.09 1017.42 1017.72 1018.00
1012.99 1013.21 1013.48 1013.79 1014.09 1014.35 1014.55 1014.68 1014.75 1014.77 1014.78 1014.81 1014.87 1014.98 1015.12 1015.26 1015.36 1015.39 1015.32 1015.12 1014.81 1014.41 1013.97 1013.53 1013.15 1012.86 1012.70 1012.67 1012.76 1012.94 1013.20 1013.50 1013.82 1014.14 1014.46 1014.77 1015.08 1015.39 1015.71 1016.03 1016.36 1016.68 1017.00
1012.52 1012.74 1013.00 1013.29 1013.58 1013.82 1014.01 1014.12 1014.17 1014.18 1014.18 1014.22 1014.29 1014.43 1014.60 1014.79 1014.95 1015.03 1015.00 1014.84 1014.56 1014.17 1013.72 1013.26 1012.84 1012.50 1012.28 1012.19 1012.22 1012.36 1012.56 1012.81 1013.07 1013.34 1013.60 1013.85 1014.10 1014.36 1014.64 1014.94 1015.26 1015.61 1016.00
1011.88 1012.10 1012.37 1012.66 1012.95 1013.21 1013.40 1013.53 1013.59 1013.61 1013.63 1013.67 1013.77 1013.92 1014.12 1014.33 1014.52 1014.63 1014.64 1014.51 1014.26 1013.89 1013.45 1012.98 1012.54 1012.18 1011.93 1011.80 1011.78 1011.86 1012.02 1012.21 1012.42 1012.63 1012.83 1013.02 1013.21 1013.42 1013.65 1013.93 1014.26 1014.64 1015.09
1011.11 1011.35 1011.64 1011.96 1012.29 1012.58 1012.81 1012.97 1013.07 1013.13 1013.17 1013.23 1013.34 1013.49 1013.70 1013.91 1014.11 1014.24 1014.26 1014.16 1013.92 1013.58 1013.16 1012.71 1012.28 1011.91 1011.65 1011.50 1011.46 1011.50 1011.62 1011.78 1011.94 1012.10 1012.25 1012.39 1012.54 1012.70 1012.91 1013.17 1013.50 1013.92 1014.41
1010.32 1010.59 1010.93 1011.29 1011.67 1012.01 1012.30 1012.52 1012.67 1012.76 1012.84 1012.92 1013.03 1013.18 1013.37 1013.58 1013.76 1013.88 1013.90 1013.81 1013.60 1013.28 1012.89 1012.47 1012.06 1011.72 1011.47 1011.32 1011.27 1011.31 1011.41 1011.55 1011.69 1011.83 1011.95 1012.07 1012.19 1012.33 1012.52 1012.77 1013.11 1013.54 1014.07
1009.63 1009.94 1010.32 1010.74 1011.17 1011.58 1011.93 1012.20 1012.40 1012.54 1012.64 1012.73 1012.84 1012.97 1013.14 1013.32 1013.48 1013.58 1013.60 1013.51 1013.32 1013.03 1012.68 1012.30 1011.93 1011.63 1011.41 1011.28 1011.25 1011.30 1011.41 1011.55 1011.70 1011.84 1011.97 1012.09 1012.21 1012.35 1012.54 1012.79 1013.14 1013.58 1014.12
1009.08 1009.44 1009.86 1010.34 1010.82 1011.28 1011.68 1012.00 1012.23 1012.40 1012.52 1012.62 1012.72 1012.84 1012.98 1013.13 1013.27 1013.35 1013.37 1013.29 1013.12 1012.86 1012.55 1012.22 1011.90 1011.64 1011.46 1011.37 1011.37 1011.46 1011.59 1011.77 1011.95 1012.12 1012.28 1012.43 1012.58 1012.74 1012.95 1013.22 1013.57 1014.02 1014.56
1008.67 1009.08 1009.54 1010.05 1010.57 1011.06 1011.49 1011.83 1012.09 1012.28 1012.40 1012.51 1012.61 1012.72 1012.84 1012.98 1013.10 1013.18 1013.20 1013.14 1012.99 1012.78 1012.51 1012.22 1011.95 1011.74 1011.60 1011.55 1011.60 1011.72 1011.90 1012.12 1012.36 1012.59 1012.80 1013.01 1013.21 1013.42 1013.67 1013.97 1014.33 1014.78 1015.31
1008.36 1008.79 1009.28 1009.80 1010.33 1010.82 1011.25 1011.60 1011.87 1012.06 1012.20 1012.31 1012.41 1012.53 1012.66 1012.80 1012.93 1013.02 1013.06 1013.03 1012.92 1012.74 1012.52 1012.28 1012.06 1011.89 1011.79 1011.78 1011.87 1012.03 1012.26 1012.54 1012.83 1013.13 1013.42 1013.70 1013.97 1014.25 1014.55 1014.88 1015.27 1015.72 1016.24
1008.02 1008.47 1008.96 1009.48 1010.00 1010.47 1010.89 1011.22 1011.48 1011.68 1011.82 1011.95 1012.07 1012.22 1012.38 1012.54 1012.70 1012.83 1012.91 1012.92 1012.85 1012.73 1012.55 1012.35 1012.17 1012.03 1011.97 1011.99 1012.11 1012.31 1012.59 1012.92 1013.28 1013.65 1014.01 1014.37 1014.71 1015.06 1015.41 1015.79 1016.21 1016.67 1017.19
1007.56 1008.02 1008.51 1009.01 1009.50 1009.94 1010.33 1010.64 1010.90 1011.09 1011.26 1011.41 1011.57 1011.76 1011.96 1012.18 1012.39 1012.57 1012.70 1012.76 1012.74 1012.66 1012.52 1012.36 1012.21 1012.11 1012.07 1012.12 1012.26 1012.50 1012.81 1013.18 1013.60 1014.03 1014.46 1014.88 1015.29 1015.70 1016.11 1016.53 1016.98 1017.46 1017.97
1006.93 1007.40 1007.88 1008.37 1008.82 1009.24 1009.60 1009.90 1010.14 1010.35 1010.54 1010.73 1010.94 1011.18 1011.44 1011.72 1011.98 1012.22 1012.39 1012.50 1012.53 1012.49 1012.39 1012.26 1012.15 1012.07 1012.05 1012.13 1012.29 1012.55 1012.90 1013.30 1013.76 1014.23 1014.71 1015.18 1015.64 1016.08 1016.53 1016.98 1017.44 1017.93 1018.45
1006.16 1006.64 1007.13 1007.60 1008.05 1008.45 1008.79 1009.08 1009.33 1009.55 1009.77 1010.00 1010.25 1010.54 1010.85 1011.17 1011.48 1011.75 1011.97 1012.11 1012.18 1012.17 1012.11 1012.02 1011.93 1011.89 1011.90 1012.00 1012.20 1012.48 1012.85 1013.28 1013.75 1014.25 1014.75 1015.24 1015.71 1016.17 1016.62 1017.07 1017.54 1018.02 1018.53
Thickness
5763 5762 5761 5760 5760 5760 5759 5758 5758 5757 5757 5758 5758 5758 5758 5758 5758 5757 5754 5750 5748 5746 5746 5744 5743 5741 5740 5738 5737 5735 5734 5732 5730 5728 5727 5725 5723 5722 5720 5718 5717 5716 5715
5762 5761 5760 5759 5759 5759 5758 5758 5758 5757 5758 5758 5758 5758 5758 5758 5757 5756 5755 5751 5749 5747 5746 5745 5744 5742 5741 5739 5738 5736 5734 5732 5731 5729 5727 5726 5724 5722 5720 5719 5717 5716 5715
5761 5761 5760 5760 5759 5758 5757 5757 5757 5757 5758 5758 5758 5758 5757 5757 5756 5755 5754 5753 5751 5748 5747 5746 5745 5743 5742 5740 5738 5737 5735 5733 5731 5730 5728 5726 5724 5722 5720 5719 5717 5716 5715
5760 5760 5760 5760 5758 5759 5759 5758 5758 5757 5757 5758 5757 5758 5758 5756 5756 5754 5754 5753 5752 5752 5749 5747 5746 5744 5742 5741 5739 5737 5736 5734 5732 5730 5728 5726 5725 5723 5721 5719 5718 5716 5714
5761 5761 5761 5759 5759 5759 5760 5760 5759 5757 5756 5756 5757 5757 5757 5757 5755 5755 5754 5754 5752 5752 5751 5749 5747 5745 5743 5741 5740 5739 5737 5735 5733 5731 5729 5727 5725 5723 5721 5719 5717 5716 5714
5761 5761 5761 5759 5759 5759 5758 5757 5756 5755 5755 5755 5758 5757 5757 5757 5756 5755 5755 5754 5753 5753 5752 5752 5749 5747 5744 5743 5741 5740 5738 5736 5734 5732 5729 5728 5726 5723 5721 5719 5718 5716 5714
5761 5760 5761 5759 5759 5758 5757 5757 5756 5755 5755 5755 5754 5753 5755 5756 5755 5754 5754 5754 5754 5753 5752 5751 5750 5749 5747 5744 5742 5740 5738 5737 5735 5733 5730 5728 5726 5724 5721 5719 5718 5716 5714
5761 5761 5759 5759 5758 5757 5756 5756 5755 5755 5756 5755 5753 5750 5747 5749 5752 5755 5753 5752 5752 5752 5751 5750 5749 5748 5748 5747 5745 5741 5739 5737 5735 5733 5731 5728 5726 5724 5721 5719 5717 5716 5714
5762 5761 5760 5759 5758 5758 5757 5756 5756 5754 5753 5754 5755 5751 5747 5743 5747 5751 5750 5751 5750 5749 5749 5749 5749 5748 5747 5746 5745 5742 5740 5738 5736 5734 5731 5729 5727 5724 5722 5720 5718 5716 5714
5763 5762 5760 5759 5758 5759 5757 5758 5758 5756 5753 5752 5753 5754 5753 5751 5746 5744 5748 5749 5748 5747 5748 5749 5748 5747 5746 5746 5744 5742 5740 5738 5735 5733 5730 5728 5726 5724 5721 5719 5717 5715 5713
5763 5762 5761 5760 5759 5759 5757 5756 5756 5756 5755 5754 5753 5752 5751 5749 5749 5744 5741 5743 5745 5747 5747 5746 5746 5746 5745 5744 5743 5742 5739 5736 5734 5731 5729 5727 5725 5723 5720 5718 5716 5714 5712
5765 5763 5762 5760 5759 5759 5757 5756 5755 5755 5754 5753 5752 5752 5750 5748 5746 5745 5742 5741 5741 5744 5745 5745 5744 5743 5743 5743 5741 5739 5736 5734 5731 5728 5726 5724 5723 5720 5718 5716 5714 5712 5710
5766 5763 5763 5760 5760 5758 5757 5756 5755 5754 5754 5751 5750 5751 5751 5750 5749 5747 5744 5742 5740 5742 5742 5742 5742 5741 5740 5739 5737 5735 5732 5729 5727 5724 5722 5720 5718 5716 5714 5712 5711 5710 5708
5768 5766 5763 5761 5759 5758 5758 5756 5756 5755 5753 5751 5751 5750 5749 5750 5749 5748 5745 5741 5737 5738 5738 5737 5739 5737 5736 5734 5732 5730 5728 5725 5722 5720 5718 5716 5714 5712 5709 5708 5706 5705 5705
5769 5766 5763 5761 5760 5758 5757 5756 5755 5753 5752 5751 5750 5749 5748 5749 5749 5748 5746 5743 5737 5732 5732 5733 5734 5733 5731 5729 5727 5725 5723 5720 5717 5715 5714 5712 5710 5708 5706 5703 5702 5700 5699
5767 5765 5763 5761 5759 5758 5756 5754 5754 5752 5750 5749 5748 5746 5746 5747 5747 5746 5744 5743 5741 5735 5730 5731 5729 5729 5727 5725 5721 5720 5717 5715 5712 5710 5708 5706 5705 5703 5701 5699 5697 5695 5694
5765 5763 5761 5760 5758 5757 5755 5753 5752 5751 5749 5747 5747 5746 5744 5743 5743 5743 5743 5741 5739 5735 5728 5727 5726 5724 5720 5718 5716 5714 5712 5710 5708 5705 5703 5701 5699 5698 5696 5694 5692 5690 5688
5766 5763 5761 5759 5757 5755 5754 5752 5750 5749 5747 5745 5744 5743 5742 5742 5740 5740 5739 5737 5736 5733 5728 5722 5720 5718 5715 5713 5711 5709 5708 5706 5703 5700 5697 5695 5694 5692 5690 5688 5686 5684 5682
5765 5763 5760 5757 5755 5754 5752 5750 5749 5747 5746 5744 5743 5741 5740 5738 5736 5736 5735 5734 5733 5732 5727 5722 5718 5714 5711 5709 5706 5704 5702 5699 5698 5695 5692 5689 5687 5685 5683 5681 5679 5678 5676
5763 5761 5758 5756 5754 5753 5750 5749 5747 5745 5743 5742 5741 5739 5738 5736 5734 5732 5732 5730 5728 5726 5723 5718 5714 5710 5707 5704 5701 5698 5695 5694 5692 5690 5687 5684 5681 5679 5677 5675 5673 5671 5669
5762 5758 5756 5754 5752 5750 5748 5745 5744 5742 5740 5738 5737 5736 5734 5731 5729 5728 5728 5726 5724 5721 5718 5714 5711 5707 5704 5699 5697 5695 5692 5689 5686 5685 5683 5681 5678 5675 5672 5669 5666 5664 5662
5758 5755 5753 5751 5749 5747 5742 5739 5739 5739 5737 5735 5733 5732 5731 5728 5725 5722 5720 5718 5716 5715 5713 5710 5708 5704 5701 5698 5695 5692 5689 5685 5681 5681 5678 5676 5675 5672 5668 5665 5662 5659 5656
5755 5752 5750 5747 5745 5741 5737 5735 5733 5735 5734 5731 5730 5729 5729 5727 5724 5722 5718 5714 5712 5708 5706 5706 5703 5701 5698 5696 5692 5688 5685 5682 5679 5677 5674 5671 5669 5666 5663 5660 5655 5652 5649
5752 5749 5746 5744 5741 5737 5732 5730 5729 5730 5730 5728 5726 5725 5723 5721 5719 5716 5715 5712 5710 5706 5703 5702 5700 5698 5695 5692 5688 5684 5680 5676 5673 5672 5669 5666 5664 5661 5658 5654 5649 5646 5643
5747 5745 5742 5739 5737 5733 5728 5726 5723 5727 5726 5724 5722 5720 5718 5716 5711 5709 5708 5706 5704 5702 5698 5696 5693 5691 5688 5685 5681 5678 5675 5672 5669 5667 5665 5661 5659 5656 5653 5649 5644 5640 5636
5742 5741 5738 5735 5733 5730 5725 5721 5718 5724 5722 5721 5719 5716 5711 5709 5705 5702 5703 5701 5698 5697 5695 5692 5688 5685 5682 5679 5675 5674 5673 5669 5665 5662 5662 5657 5653 5650 5646 5645 5641 5636 5632